Location: Cherryland
(37.6794°N, 122.1033°W)
Time: 12:49:13
(UTC+00:00)

Cosmos 1570 Rocket - Pass Details

Date: 14 December 2025
Orbit: 759 x 784 km, 74.1° (Epoch: 17 January)

Event Time Altitude Azimuth Distance (km) Brightness Sun altitude
Rises 14:37:26 0° 214° (SW) 3,239 7.1 -7.7°
Reaches altitude 10° 14:39:54 10° 221° (SW) 2,320 6.3 -7.2°
Maximum altitude 14:44:56 44° 293° (WNW) 1,075 4.4 -6.3°
Drops below altitude 10° 14:50:00 10° 5° (N) 2,344 6.3 -5.4°
Sets 14:52:32 0° 12° (NNE) 3,278 7.1 -4.9°
